Погода в Батаевке

Россия / Астраханская область     48°08′27″N   46°17′23″E
темп.,
°C
ветер,
м/с
пор.,
м/с
влажн.,
%
обл.,
%
осадки,
мм/ч
давл.,
гПа
погр.,
м
24 сентября, пт
пт2401:00+11ссз3585100 0.0 1012163
04:00+11с2386100 0.0 101271
07:00+12с4777100 0.0 1011253
10:00+10с4685100 2.6 1012266
13:00+11ссз5688100 4.1 1011419
16:00+11ссз5786100 4.6 1011456
19:00+11зсз5786100 0.0 1011422
22:00+11з4783100 0.0 1011305
25 сентября, сб
сб2501:00+10з34805 0.0 101190
04:00+10зюз347964 0.0 101158
07:00+10юз3486100 0.0 101190
10:00+14юз3463100 0.0 1011344
13:00+15юз4761100 0.0 1011633
16:00+14юз51170100 0.0 10121036
19:00+13юз61182100 0.4 1012528
22:00+11юз5118915 0.8 1012323
26 сентября, вс
вс2601:00+11юз5118689 0.0 1012299
04:00+10зюз49898 0.1 1013214
07:00+9з410895 0.0 1013243
10:00+14з586682 0.0 1013622
13:00+16з6951100 0.0 10121450
16:00+17з6945100 0.0 10111921
19:00+12юз61085100 0.8 1010543
22:00+13зюз698728 2.0 1008564
27 сентября, пн
пн2701:00+11зюз499661 1.1 1006267
04:00+11зсз8148716 2.1 1007530
07:00+9зсз7138728 0.0 1008591
10:00+11зсз9117686 0.0 1010780
13:00+14сз8105848 0.0 10111430
16:00+15сз8105552 0.2 10121538
19:00+12зсз5871100 0.0 1014550
22:00+12зсз4871100 0.0 1015400
28 сентября, вт
вт2801:00+12сз4778100 0.0 1015297
04:00+11ссз47806 0.0 1017268
07:00+9с37915 0.0 1019199
10:00+12св566844 0.0 1021706
13:00+13ссв5560100 0.0 10221265
16:00+12св555896 0.0 10231107
19:00+11ссв355788 0.0 1025118
22:00+10ссв346044 0.0 102666